Time,TemperatureF,DewpointF,PressureIn,WindDirection,WindDirectionDegrees,WindSpeedMPH,WindSpeedGustMPH,Humidity,HourlyPrecipIn,Conditions,Clouds,dailyrainin,SoftwareType,DateUTC
2013-04-27 00:03:00,61.5,45.1,30.11,West,270,0.0,0.0,55,0.00,,,0.00,WUHU216HW,2013-04-27 07:03:00,
2013-04-27 00:08:00,61.1,44.9,30.11,West,270,0.0,0.0,55,0.00,,,0.00,WUHU216HW,2013-04-27 07:08:00,
2013-04-27 00:13:00,60.9,44.1,30.11,West,270,0.0,0.0,54,0.00,,,0.00,WUHU216HW,2013-04-27 07:13:00,
2013-04-27 00:18:00,60.8,44.0,30.12,West,270,0.0,0.0,54,0.00,,,0.00,WUHU216HW,2013-04-27 07:18:00,
2013-04-27 00:23:00,60.6,43.8,30.12,West,270,0.0,0.0,54,0.00,,,0.00,WUHU216HW,2013-04-27 07:23:00,
2013-04-27 00:28:00,60.4,44.1,30.12,West,270,0.0,0.0,55,0.00,,,0.00,WUHU216HW,2013-04-27 07:28:00,
2013-04-27 00:33:00,60.2,43.9,30.12,West,270,0.0,0.0,55,0.00,,,0.00,WUHU216HW,2013-04-27 07:33:00,
2013-04-27 00:38:00,59.9,43.6,30.11,West,270,0.0,0.0,55,0.00,,,0.00,WUHU216HW,2013-04-27 07:38:00,
2013-04-27 00:43:00,59.7,43.9,30.12,West,270,0.0,0.0,56,0.00,,,0.00,WUHU216HW,2013-04-27 07:43:00,
2013-04-27 00:48:00,59.7,44.4,30.12,West,270,0.0,0.0,57,0.00,,,0.00,WUHU216HW,2013-04-27 07:48:00,
2013-04-27 00:53:00,59.3,44.0,30.11,West,270,0.0,0.0,57,0.00,,,0.00,WUHU216HW,2013-04-27 07:53:00,
2013-04-27 00:58:00,59.3,44.0,30.12,West,270,0.0,0.0,57,0.00,,,0.00,WUHU216HW,2013-04-27 07:58:00,
2013-04-27 01:03:00,59.1,43.8,30.12,West,270,0.0,0.0,57,0.00,,,0.00,WUHU216HW,2013-04-27 08:03:00,
2013-04-27 01:08:00,59.1,43.8,30.11,West,270,0.0,0.0,57,0.00,,,0.00,WUHU216HW,2013-04-27 08:08:00,
2013-04-27 01:13:00,59.0,43.7,30.11,West,270,0.0,0.0,57,0.00,,,0.00,WUHU216HW,2013-04-27 08:13:00,
2013-04-27 01:18:00,58.8,44.0,30.12,WNW,293,0.0,0.0,58,0.00,,,0.00,WUHU216HW,2013-04-27 08:18:00,
2013-04-27 01:23:00,58.6,44.3,30.12,WNW,293,0.0,0.0,59,0.00,,,0.00,WUHU216HW,2013-04-27 08:23:00,
2013-04-27 01:28:00,58.6,44.3,30.12,WNW,293,0.0,0.0,59,0.00,,,0.00,WUHU216HW,2013-04-27 08:28:00,
2013-04-27 01:33:00,58.4,44.1,30.12,WNW,293,0.0,0.0,59,0.00,,,0.00,WUHU216HW,2013-04-27 08:33:00,
2013-04-27 01:38:00,58.2,44.0,30.12,WNW,293,0.0,0.0,59,0.00,,,0.00,WUHU216HW,2013-04-27 08:38:00,
2013-04-27 01:43:00,58.1,43.8,30.12,WNW,293,0.0,0.0,59,0.00,,,0.00,WUHU216HW,2013-04-27 08:43:00,
2013-04-27 01:48:00,58.1,43.8,30.12,WNW,293,0.0,0.0,59,0.00,,,0.00,WUHU216HW,2013-04-27 08:48:00,
2013-04-27 01:53:00,57.9,43.7,30.11,WNW,293,0.0,0.0,59,0.00,,,0.00,WUHU216HW,2013-04-27 08:53:00,
2013-04-27 01:58:00,57.7,43.5,30.11,WNW,293,0.0,0.0,59,0.00,,,0.00,WUHU216HW,2013-04-27 08:58:00,
2013-04-27 02:03:00,57.7,43.5,30.12,WNW,293,0.0,0.0,59,0.00,,,0.00,WUHU216HW,2013-04-27 09:03:00,
2013-04-27 02:08:00,57.3,43.2,30.11,WNW,293,0.0,0.0,59,0.00,,,0.00,WUHU216HW,2013-04-27 09:08:00,
2013-04-27 02:13:00,57.3,43.2,30.12,WNW,293,0.0,0.0,59,0.00,,,0.00,WUHU216HW,2013-04-27 09:13:00,
2013-04-27 02:18:00,57.2,43.0,30.12,WNW,293,0.0,0.0,59,0.00,,,0.00,WUHU216HW,2013-04-27 09:18:00,
2013-04-27 02:23:00,57.0,43.3,30.12,WNW,293,0.0,0.0,60,0.00,,,0.00,WUHU216HW,2013-04-27 09:23:00,
2013-04-27 02:28:00,56.8,43.1,30.12,WNW,293,0.0,0.0,60,0.00,,,0.00,WUHU216HW,2013-04-27 09:28:00,
2013-04-27 02:33:00,56.6,43.3,30.11,WNW,293,0.0,0.0,61,0.00,,,0.00,WUHU216HW,2013-04-27 09:33:00,
2013-04-27 02:38:00,56.6,43.3,30.11,WNW,293,0.0,0.0,61,0.00,,,0.00,WUHU216HW,2013-04-27 09:38:00,
2013-04-27 02:43:00,56.4,43.1,30.11,WNW,293,0.0,0.0,61,0.00,,,0.00,WUHU216HW,2013-04-27 09:43:00,
2013-04-27 02:48:00,56.3,43.0,30.11,WNW,293,0.0,0.0,61,0.00,,,0.00,WUHU216HW,2013-04-27 09:48:00,
2013-04-27 02:53:00,56.1,42.8,30.11,WNW,293,0.0,0.0,61,0.00,,,0.00,WUHU216HW,2013-04-27 09:53:00,
2013-04-27 02:58:00,56.1,43.2,30.11,WNW,293,0.0,0.0,62,0.00,,,0.00,WUHU216HW,2013-04-27 09:58:00,
2013-04-27 03:03:00,55.9,43.4,30.11,WNW,293,0.0,0.0,63,0.00,,,0.00,WUHU216HW,2013-04-27 10:03:00,
2013-04-27 03:08:00,55.7,43.3,30.11,WNW,293,0.0,0.0,63,0.00,,,0.00,WUHU216HW,2013-04-27 10:08:00,
2013-04-27 03:13:00,55.7,43.7,30.11,WNW,293,0.0,0.0,64,0.00,,,0.00,WUHU216HW,2013-04-27 10:13:00,
2013-04-27 03:18:00,55.5,43.5,30.11,West,270,0.0,0.0,64,0.00,,,0.00,WUHU216HW,2013-04-27 10:18:00,
2013-04-27 03:23:00,55.5,43.5,30.11,West,270,0.0,0.0,64,0.00,,,0.00,WUHU216HW,2013-04-27 10:23:00,
2013-04-27 03:28:00,55.5,43.5,30.12,West,270,0.0,0.0,64,0.00,,,0.00,WUHU216HW,2013-04-27 10:28:00,
2013-04-27 03:33:00,55.5,43.5,30.12,West,270,0.0,0.0,64,0.00,,,0.00,WUHU216HW,2013-04-27 10:33:00,
2013-04-27 03:38:00,55.2,43.1,30.12,West,270,0.0,0.0,64,0.00,,,0.00,WUHU216HW,2013-04-27 10:38:00,
2013-04-27 03:43:00,55.2,43.1,30.12,West,270,0.0,0.0,64,0.00,,,0.00,WUHU216HW,2013-04-27 10:43:00,
2013-04-27 03:48:00,55.0,43.0,30.12,West,270,0.0,0.0,64,0.00,,,0.00,WUHU216HW,2013-04-27 10:48:00,
2013-04-27 03:53:00,55.0,43.0,30.12,West,270,0.0,0.0,64,0.00,,,0.00,WUHU216HW,2013-04-27 10:53:00,
2013-04-27 03:58:00,55.0,43.0,30.11,West,270,0.0,0.0,64,0.00,,,0.00,WUHU216HW,2013-04-27 10:58:00,
2013-04-27 04:03:00,54.8,42.8,30.12,West,270,0.0,0.0,64,0.00,,,0.00,WUHU216HW,2013-04-27 11:03:00,
2013-04-27 04:08:00,54.8,42.8,30.12,West,270,0.0,0.0,64,0.00,,,0.00,WUHU216HW,2013-04-27 11:08:00,
2013-04-27 04:13:00,54.8,43.2,30.11,West,270,0.0,0.0,65,0.00,,,0.00,WUHU216HW,2013-04-27 11:13:00,
2013-04-27 04:18:00,54.6,43.1,30.12,West,270,0.0,0.0,65,0.00,,,0.00,WUHU216HW,2013-04-27 11:18:00,
2013-04-27 04:23:00,54.5,42.9,30.12,West,270,0.0,0.0,65,0.00,,,0.00,WUHU216HW,2013-04-27 11:23:00,
2013-04-27 04:28:00,54.5,42.9,30.12,West,270,0.0,0.0,65,0.00,,,0.00,WUHU216HW,2013-04-27 11:28:00,
2013-04-27 04:33:00,54.5,42.9,30.12,West,270,0.0,0.0,65,0.00,,,0.00,WUHU216HW,2013-04-27 11:33:00,
2013-04-27 04:38:00,54.5,43.3,30.12,West,270,0.0,0.0,66,0.00,,,0.00,WUHU216HW,2013-04-27 11:38:00,
2013-04-27 04:43:00,54.5,44.1,30.12,West,270,0.0,0.0,68,0.00,,,0.00,WUHU216HW,2013-04-27 11:43:00,
2013-04-27 04:48:00,54.5,44.1,30.12,West,270,0.0,0.0,68,0.00,,,0.00,WUHU216HW,2013-04-27 11:48:00,
2013-04-27 04:53:00,54.5,44.1,30.12,West,270,0.0,0.0,68,0.00,,,0.00,WUHU216HW,2013-04-27 11:53:00,
2013-04-27 04:58:00,54.5,44.1,30.12,West,270,0.0,0.0,68,0.00,,,0.00,WUHU216HW,2013-04-27 11:58:00,
2013-04-27 05:03:00,54.5,44.5,30.12,West,270,0.0,0.0,69,0.00,,,0.00,WUHU216HW,2013-04-27 12:03:00,
2013-04-27 05:08:00,54.5,44.5,30.12,West,270,0.0,0.0,69,0.00,,,0.00,WUHU216HW,2013-04-27 12:08:00,
2013-04-27 05:13:00,54.3,44.3,30.12,West,270,0.0,0.0,69,0.00,,,0.00,WUHU216HW,2013-04-27 12:13:00,
2013-04-27 05:18:00,54.3,44.3,30.12,West,270,0.0,0.0,69,0.00,,,0.00,WUHU216HW,2013-04-27 12:18:00,
2013-04-27 05:23:00,54.1,44.1,30.12,West,270,0.0,0.0,69,0.00,,,0.00,WUHU216HW,2013-04-27 12:23:00,
2013-04-27 05:29:00,54.1,44.1,30.12,West,270,0.0,0.0,69,0.00,,,0.00,WUHU216HW,2013-04-27 12:29:00,
2013-04-27 05:34:00,54.1,44.1,30.13,West,270,0.0,0.0,69,0.00,,,0.00,WUHU216HW,2013-04-27 12:34:00,
2013-04-27 05:39:00,53.9,44.0,30.12,West,270,0.0,0.0,69,0.00,,,0.00,WUHU216HW,2013-04-27 12:39:00,
2013-04-27 05:44:00,53.7,43.4,30.13,West,270,0.0,0.0,68,0.00,,,0.00,WUHU216HW,2013-04-27 12:44:00,
2013-04-27 05:49:00,53.7,43.4,30.13,West,270,0.0,0.0,68,0.00,,,0.00,WUHU216HW,2013-04-27 12:49:00,
2013-04-27 05:54:00,53.6,43.2,30.13,West,270,0.0,0.0,68,0.00,,,0.00,WUHU216HW,2013-04-27 12:54:00,
2013-04-27 05:59:00,53.4,43.0,30.13,West,270,0.0,0.0,68,0.00,,,0.00,WUHU216HW,2013-04-27 12:59:00,
2013-04-27 06:04:00,53.4,43.0,30.13,West,270,0.0,0.0,68,0.00,,,0.00,WUHU216HW,2013-04-27 13:04:00,
2013-04-27 06:09:00,53.4,43.0,30.13,West,270,0.0,0.0,68,0.00,,,0.00,WUHU216HW,2013-04-27 13:09:00,
2013-04-27 06:14:00,53.2,42.9,30.13,West,270,0.0,0.0,68,0.00,,,0.00,WUHU216HW,2013-04-27 13:14:00,
2013-04-27 06:19:00,53.0,42.7,30.13,West,270,0.0,0.0,68,0.00,,,0.00,WUHU216HW,2013-04-27 13:19:00,
2013-04-27 06:24:00,53.0,42.7,30.14,West,270,0.0,0.0,68,0.00,,,0.00,WUHU216HW,2013-04-27 13:24:00,
2013-04-27 06:29:00,52.8,42.6,30.14,West,270,0.0,0.0,68,0.00,,,0.00,WUHU216HW,2013-04-27 13:29:00,
2013-04-27 06:34:00,52.8,42.6,30.14,West,270,0.0,0.0,68,0.00,,,0.00,WUHU216HW,2013-04-27 13:34:00,
2013-04-27 06:39:00,52.8,42.6,30.14,West,270,0.0,0.0,68,0.00,,,0.00,WUHU216HW,2013-04-27 13:39:00,
2013-04-27 06:44:00,52.7,42.4,30.14,West,270,0.0,0.0,68,0.00,,,0.00,WUHU216HW,2013-04-27 13:44:00,
2013-04-27 06:49:00,52.8,42.6,30.15,West,270,0.0,0.0,68,0.00,,,0.00,WUHU216HW,2013-04-27 13:49:00,
2013-04-27 06:54:00,52.8,42.9,30.15,West,270,0.0,0.0,69,0.00,,,0.00,WUHU216HW,2013-04-27 13:54:00,
2013-04-27 06:59:00,53.0,43.1,30.15,West,270,0.0,0.0,69,0.00,,,0.00,WUHU216HW,2013-04-27 13:59:00,
2013-04-27 07:04:00,53.2,43.3,30.15,West,270,0.0,0.0,69,0.00,,,0.00,WUHU216HW,2013-04-27 14:04:00,
2013-04-27 07:09:00,53.2,43.7,30.15,NNW,338,0.0,0.0,70,0.00,,,0.00,WUHU216HW,2013-04-27 14:09:00,
2013-04-27 07:14:00,53.7,44.5,30.15,NNW,338,0.0,0.0,71,0.00,,,0.00,WUHU216HW,2013-04-27 14:14:00,
2013-04-27 07:19:00,53.7,44.5,30.16,NNW,338,0.0,0.0,71,0.00,,,0.00,WUHU216HW,2013-04-27 14:19:00,
2013-04-27 07:24:00,54.1,44.9,30.15,North,0,0.0,0.0,71,0.00,,,0.00,WUHU216HW,2013-04-27 14:24:00,
2013-04-27 07:29:00,54.3,45.1,30.16,North,0,0.0,0.0,71,0.00,,,0.00,WUHU216HW,2013-04-27 14:29:00,
2013-04-27 07:34:00,54.8,45.3,30.16,North,0,0.0,0.0,72,0.00,,,0.00,WUHU216HW,2013-04-27 14:34:00,
2013-04-27 07:39:00,55.0,46.1,30.16,North,0,0.0,0.0,72,0.00,,,0.00,WUHU216HW,2013-04-27 14:39:00,
2013-04-27 07:44:00,55.5,46.7,30.16,North,0,0.0,0.0,72,0.00,,,0.00,WUHU216HW,2013-04-27 14:44:00,
2013-04-27 07:49:00,56.3,47.7,30.16,North,0,0.0,0.0,73,0.00,,,0.00,WUHU216HW,2013-04-27 14:49:00,
2013-04-27 07:54:00,56.6,47.6,30.16,South,180,0.0,0.0,72,0.00,,,0.00,WUHU216HW,2013-04-27 14:54:00,
2013-04-27 07:59:00,57.3,48.0,30.16,NNW,338,0.0,0.0,71,0.00,,,0.00,WUHU216HW,2013-04-27 14:59:00,
2013-04-27 08:04:00,57.7,48.0,30.17,NNW,338,0.0,0.0,70,0.00,,,0.00,WUHU216HW,2013-04-27 15:04:00,
2013-04-27 08:09:00,57.9,48.2,30.16,NNW,338,0.0,0.0,70,0.00,,,0.00,WUHU216HW,2013-04-27 15:09:00,
2013-04-27 08:14:00,57.9,47.3,30.17,NNW,338,0.0,0.0,68,0.00,,,0.00,WUHU216HW,2013-04-27 15:14:00,
2013-04-27 08:19:00,58.8,48.2,30.16,NNW,338,0.0,0.0,68,0.00,,,0.00,WUHU216HW,2013-04-27 15:19:00,
2013-04-27 08:24:00,59.1,48.6,30.16,NW,315,0.0,0.0,68,0.00,,,0.00,WUHU216HW,2013-04-27 15:24:00,
2013-04-27 08:29:00,59.3,48.8,30.17,WNW,293,0.0,0.0,68,0.00,,,0.00,WUHU216HW,2013-04-27 15:29:00,
2013-04-27 08:34:00,60.4,49.0,30.16,North,0,0.0,0.0,66,0.00,,,0.00,WUHU216HW,2013-04-27 15:34:00,
2013-04-27 08:39:00,60.6,49.2,30.17,North,0,0.0,0.0,66,0.00,,,0.00,WUHU216HW,2013-04-27 15:39:00,
2013-04-27 08:44:00,60.9,49.1,30.17,NW,315,0.0,0.0,65,0.00,,,0.00,WUHU216HW,2013-04-27 15:44:00,
2013-04-27 08:49:00,61.7,49.8,30.17,NW,315,0.0,0.0,65,0.00,,,0.00,WUHU216HW,2013-04-27 15:49:00,
2013-04-27 08:54:00,62.0,49.3,30.17,NW,315,0.0,0.0,63,0.00,,,0.00,WUHU216HW,2013-04-27 15:54:00,
2013-04-27 08:59:00,62.6,49.8,30.17,WSW,248,0.0,0.0,63,0.00,,,0.00,WUHU216HW,2013-04-27 15:59:00,
2013-04-27 09:04:00,62.9,49.7,30.16,WSW,248,0.0,0.0,62,0.00,,,0.00,WUHU216HW,2013-04-27 16:04:00,
2013-04-27 09:09:00,63.3,50.0,30.16,WSW,248,0.0,0.0,62,0.00,,,0.00,WUHU216HW,2013-04-27 16:09:00,
2013-04-27 09:14:00,63.8,50.1,30.16,WSW,248,0.0,0.0,61,0.00,,,0.00,WUHU216HW,2013-04-27 16:14:00,
2013-04-27 09:19:00,64.4,50.6,30.17,WSW,248,0.0,0.0,61,0.00,,,0.00,WUHU216HW,2013-04-27 16:19:00,
2013-04-27 09:24:00,64.9,50.7,30.16,WSW,248,0.0,0.0,60,0.00,,,0.00,WUHU216HW,2013-04-27 16:24:00,
2013-04-27 09:29:00,65.4,51.2,30.17,WSW,248,0.0,0.0,60,0.00,,,0.00,WUHU216HW,2013-04-27 16:29:00,
2013-04-27 09:34:00,65.8,50.1,30.16,WSW,248,0.0,0.0,57,0.00,,,0.00,WUHU216HW,2013-04-27 16:34:00,
2013-04-27 09:39:00,65.8,50.1,30.16,WSW,248,0.0,0.0,57,0.00,,,0.00,WUHU216HW,2013-04-27 16:39:00,
2013-04-27 09:44:00,67.1,51.3,30.16,WSW,248,0.0,0.0,56,0.00,,,0.00,WUHU216HW,2013-04-27 16:44:00,
2013-04-27 09:49:00,68.1,51.3,30.17,WSW,248,0.0,0.0,55,0.00,,,0.00,WUHU216HW,2013-04-27 16:49:00,
2013-04-27 09:54:00,68.3,51.0,30.16,WSW,248,0.0,0.0,54,0.00,,,0.00,WUHU216HW,2013-04-27 16:54:00,
2013-04-27 09:59:00,68.9,51.5,30.16,WSW,248,0.0,0.0,54,0.00,,,0.00,WUHU216HW,2013-04-27 16:59:00,
2013-04-27 10:04:00,69.4,51.5,30.16,East,90,0.0,0.0,53,0.00,,,0.00,WUHU216HW,2013-04-27 17:04:00,
2013-04-27 10:09:00,69.9,51.5,30.16,WSW,248,0.0,0.0,52,0.00,,,0.00,WUHU216HW,2013-04-27 17:09:00,
2013-04-27 10:14:00,70.5,52.0,30.16,West,270,0.0,0.0,52,0.00,,,0.00,WUHU216HW,2013-04-27 17:14:00,
2013-04-27 10:19:00,70.8,51.3,30.16,WSW,248,0.0,0.0,50,0.00,,,0.00,WUHU216HW,2013-04-27 17:19:00,
2013-04-27 10:24:00,71.7,51.5,30.16,WSW,248,0.0,0.0,49,0.00,,,0.00,WUHU216HW,2013-04-27 17:24:00,
2013-04-27 10:29:00,72.5,51.4,30.16,West,270,0.0,0.0,48,0.00,,,0.00,WUHU216HW,2013-04-27 17:29:00,
2013-04-27 10:34:00,73.4,52.4,30.16,WSW,248,0.0,0.0,48,0.00,,,0.00,WUHU216HW,2013-04-27 17:34:00,
2013-04-27 10:39:00,74.6,52.4,30.16,North,0,0.0,0.0,46,0.00,,,0.00,WUHU216HW,2013-04-27 17:39:00,
2013-04-27 10:45:00,75.3,52.5,30.16,WSW,248,0.0,0.0,45,0.00,,,0.00,WUHU216HW,2013-04-27 17:45:00,
2013-04-27 10:50:00,76.1,53.1,30.16,WSW,248,0.0,0.0,45,0.00,,,0.00,WUHU216HW,2013-04-27 17:50:00,
2013-04-27 10:55:00,77.3,52.4,30.16,North,0,0.0,0.0,42,0.00,,,0.00,WUHU216HW,2013-04-27 17:55:00,
2013-04-27 11:00:00,77.9,52.9,30.16,NNW,338,0.0,0.0,42,0.00,,,0.00,WUHU216HW,2013-04-27 18:00:00,
2013-04-27 11:05:00,77.9,50.9,30.16,NNW,338,0.0,0.0,39,0.00,,,0.00,WUHU216HW,2013-04-27 18:05:00,
2013-04-27 11:10:00,78.2,51.2,30.16,NNE,23,0.0,0.0,39,0.00,,,0.00,WUHU216HW,2013-04-27 18:10:00,
2013-04-27 11:15:00,78.4,50.6,30.16,NNW,338,0.0,0.0,38,0.00,,,0.00,WUHU216HW,2013-04-27 18:15:00,
2013-04-27 11:20:00,79.1,52.0,30.16,NNW,338,0.0,0.0,38,0.00,,,0.00,WUHU216HW,2013-04-27 18:20:00,
2013-04-27 11:25:00,80.0,51.3,30.16,North,0,0.0,0.0,37,0.00,,,0.00,WUHU216HW,2013-04-27 18:25:00,
2013-04-27 11:30:00,80.4,51.6,30.16,NNW,338,0.0,0.0,37,0.00,,,0.00,WUHU216HW,2013-04-27 18:30:00,
2013-04-27 11:35:00,80.9,52.1,30.16,NNW,338,0.0,0.0,37,0.00,,,0.00,WUHU216HW,2013-04-27 18:35:00,
2013-04-27 11:40:00,82.2,52.4,30.16,SE,135,0.0,0.0,36,0.00,,,0.00,WUHU216HW,2013-04-27 18:40:00,
2013-04-27 11:45:00,82.9,53.0,30.15,NW,315,0.0,0.0,36,0.00,,,0.00,WUHU216HW,2013-04-27 18:45:00,
2013-04-27 11:50:00,84.0,52.9,30.15,North,0,0.0,0.0,35,0.00,,,0.00,WUHU216HW,2013-04-27 18:50:00,
2013-04-27 11:55:00,84.3,52.7,30.15,NNW,338,0.0,0.0,34,0.00,,,0.00,WUHU216HW,2013-04-27 18:55:00,
2013-04-27 12:00:00,84.5,52.1,30.15,North,0,0.0,0.0,33,0.00,,,0.00,WUHU216HW,2013-04-27 19:00:00,
2013-04-27 12:05:00,84.5,52.1,30.14,NE,45,0.0,0.0,33,0.00,,,0.00,WUHU216HW,2013-04-27 19:05:00,
2013-04-27 12:10:00,85.4,52.9,30.14,SE,135,0.0,0.0,33,0.00,,,0.00,WUHU216HW,2013-04-27 19:10:00,
2013-04-27 12:15:00,86.1,52.8,30.14,SE,135,0.0,0.0,32,0.00,,,0.00,WUHU216HW,2013-04-27 19:15:00,
2013-04-27 12:20:00,86.7,52.4,30.14,NW,315,0.0,0.0,31,0.00,,,0.00,WUHU216HW,2013-04-27 19:20:00,
2013-04-27 12:25:00,87.0,50.8,30.14,NNW,338,0.0,0.0,29,0.00,,,0.00,WUHU216HW,2013-04-27 19:25:00,
2013-04-27 12:30:00,86.9,50.7,30.14,NNW,338,0.2,0.2,29,0.00,,,0.00,WUHU216HW,2013-04-27 19:30:00,
2013-04-27 12:35:00,87.0,50.8,30.13,SE,135,2.9,2.9,29,0.00,,,0.00,WUHU216HW,2013-04-27 19:35:00,
2013-04-27 12:40:00,87.8,51.4,30.13,NNW,338,3.5,3.5,29,0.00,,,0.00,WUHU216HW,2013-04-27 19:40:00,
2013-04-27 12:45:00,88.1,51.7,30.12,NE,45,0.0,3.5,29,0.00,,,0.00,WUHU216HW,2013-04-27 19:45:00,
2013-04-27 12:50:00,88.7,51.1,30.12,NNW,338,0.0,3.5,28,0.00,,,0.00,WUHU216HW,2013-04-27 19:50:00,
2013-04-27 12:55:00,89.0,50.4,30.12,NNW,338,0.0,4.9,27,0.00,,,0.00,WUHU216HW,2013-04-27 19:55:00,
2013-04-27 13:00:00,89.0,50.4,30.12,NNW,338,1.5,4.9,27,0.00,,,0.00,WUHU216HW,2013-04-27 20:00:00,
2013-04-27 13:05:00,89.2,50.5,30.12,NNW,338,3.1,3.1,27,0.00,,,0.00,WUHU216HW,2013-04-27 20:05:00,
2013-04-27 13:10:00,89.6,50.9,30.12,NNW,338,7.1,7.1,27,0.00,,,0.00,WUHU216HW,2013-04-27 20:10:00,
2013-04-27 13:15:00,89.4,50.7,30.11,WNW,293,0.0,7.1,27,0.00,,,0.00,WUHU216HW,2013-04-27 20:15:00,
2013-04-27 13:20:00,90.1,51.3,30.11,NW,315,0.0,0.0,27,0.00,,,0.00,WUHU216HW,2013-04-27 20:20:00,
2013-04-27 13:25:00,90.5,51.6,30.11,South,180,2.0,2.6,27,0.00,,,0.00,WUHU216HW,2013-04-27 20:25:00,
2013-04-27 13:30:00,91.0,51.0,30.11,SE,135,0.0,2.6,26,0.00,,,0.00,WUHU216HW,2013-04-27 20:30:00,
2013-04-27 13:35:00,91.7,50.5,30.10,North,0,0.8,0.8,25,0.00,,,0.00,WUHU216HW,2013-04-27 20:35:00,
2013-04-27 13:40:00,92.4,51.1,30.11,South,180,0.0,2.2,25,0.00,,,0.00,WUHU216HW,2013-04-27 20:40:00,
2013-04-27 13:45:00,92.8,51.4,30.10,South,180,0.0,2.2,25,0.00,,,0.00,WUHU216HW,2013-04-27 20:45:00,
2013-04-27 13:50:00,93.7,51.0,30.10,NNW,338,0.6,0.6,24,0.00,,,0.00,WUHU216HW,2013-04-27 20:50:00,
2013-04-27 13:55:00,94.2,49.2,30.10,NNW,338,2.0,2.0,22,0.00,,,0.00,WUHU216HW,2013-04-27 20:55:00,
2013-04-27 14:00:00,94.4,49.4,30.10,ESE,113,2.6,4.9,22,0.00,,,0.00,WUHU216HW,2013-04-27 21:00:00,
2013-04-27 14:05:00,94.6,48.4,30.09,ESE,113,0.0,4.9,21,0.00,,,0.00,WUHU216HW,2013-04-27 21:05:00,
2013-04-27 14:10:00,95.3,50.1,30.09,ESE,113,0.0,2.6,22,0.00,,,0.00,WUHU216HW,2013-04-27 21:10:00,
2013-04-27 14:15:00,96.4,51.1,30.09,SW,225,0.0,1.1,22,0.00,,,0.00,WUHU216HW,2013-04-27 21:15:00,
2013-04-27 14:20:00,96.9,47.9,30.09,South,180,0.0,1.7,19,0.00,,,0.00,WUHU216HW,2013-04-27 21:20:00,
2013-04-27 14:25:00,97.7,48.5,30.09,SSW,203,6.9,6.9,19,0.00,,,0.00,WUHU216HW,2013-04-27 21:25:00,
2013-04-27 14:30:00,98.2,48.9,30.08,SE,135,5.3,6.9,19,0.00,,,0.00,WUHU216HW,2013-04-27 21:30:00,
2013-04-27 14:35:00,98.0,48.8,30.08,SSE,158,0.0,5.3,19,0.00,,,0.00,WUHU216HW,2013-04-27 21:35:00,
2013-04-27 14:40:00,98.7,49.3,30.08,SE,135,1.3,1.3,19,0.00,,,0.00,WUHU216HW,2013-04-27 21:40:00,
2013-04-27 14:45:00,99.5,50.0,30.08,ESE,113,4.0,4.0,19,0.00,,,0.00,WUHU216HW,2013-04-27 21:45:00,
2013-04-27 14:50:00,100.0,50.4,30.08,SE,135,0.0,4.0,19,0.00,,,0.00,WUHU216HW,2013-04-27 21:50:00,
2013-04-27 14:55:00,100.0,50.4,30.07,NNW,338,0.0,4.0,19,0.00,,,0.00,WUHU216HW,2013-04-27 21:55:00,
2013-04-27 15:00:00,100.7,51.0,30.07,SE,135,2.4,2.4,19,0.00,,,0.00,WUHU216HW,2013-04-27 22:00:00,
2013-04-27 15:05:00,101.6,51.7,30.07,ESE,113,0.0,4.2,19,0.00,,,0.00,WUHU216HW,2013-04-27 22:05:00,
2013-04-27 15:10:00,102.3,52.3,30.07,ENE,68,0.0,4.2,19,0.00,,,0.00,WUHU216HW,2013-04-27 22:10:00,
2013-04-27 15:15:00,103.8,53.5,30.07,NW,315,4.9,4.9,19,0.00,,,0.00,WUHU216HW,2013-04-27 22:15:00,
2013-04-27 15:20:00,104.1,53.7,30.07,SE,135,6.2,6.2,19,0.00,,,0.00,WUHU216HW,2013-04-27 22:20:00,
2013-04-27 15:25:00,104.9,54.4,30.06,NNW,338,0.0,6.2,19,0.00,,,0.00,WUHU216HW,2013-04-27 22:25:00,
2013-04-27 15:30:00,105.2,54.6,30.06,NNW,338,0.0,6.2,19,0.00,,,0.00,WUHU216HW,2013-04-27 22:30:00,
2013-04-27 15:35:00,104.5,54.1,30.06,NNW,338,5.3,5.3,19,0.00,,,0.00,WUHU216HW,2013-04-27 22:35:00,
2013-04-27 15:40:00,104.1,53.7,30.05,SSE,158,2.9,5.3,19,0.00,,,0.00,WUHU216HW,2013-04-27 22:40:00,
2013-04-27 15:45:00,104.1,53.7,30.05,SSE,158,4.9,5.3,19,0.00,,,0.00,WUHU216HW,2013-04-27 22:45:00,
2013-04-27 15:50:00,104.3,53.9,30.05,SE,135,0.0,4.9,19,0.00,,,0.00,WUHU216HW,2013-04-27 22:50:00,
2013-04-27 15:56:00,104.3,53.9,30.05,NW,315,2.0,4.9,19,0.00,,,0.00,WUHU216HW,2013-04-27 22:56:00,
2013-04-27 16:01:00,103.1,52.9,30.04,NNW,338,0.4,4.9,19,0.00,,,0.00,WUHU216HW,2013-04-27 23:01:00,
2013-04-27 16:06:00,102.2,52.2,30.04,SE,135,0.0,2.0,19,0.00,,,0.00,WUHU216HW,2013-04-27 23:06:00,
2013-04-27 16:11:00,102.5,52.4,30.04,North,0,2.0,2.0,19,0.00,,,0.00,WUHU216HW,2013-04-27 23:11:00,
2013-04-27 16:16:00,102.3,52.3,30.04,NW,315,1.5,2.0,19,0.00,,,0.00,WUHU216HW,2013-04-27 23:16:00,
2013-04-27 16:21:00,101.3,51.4,30.04,SE,135,0.0,2.9,19,0.00,,,0.00,WUHU216HW,2013-04-27 23:21:00,
2013-04-27 16:26:00,100.9,51.1,30.03,NNE,23,0.0,3.5,19,0.00,,,0.00,WUHU216HW,2013-04-27 23:26:00,
2013-04-27 16:31:00,100.9,51.1,30.04,WNW,293,0.0,3.8,19,0.00,,,0.00,WUHU216HW,2013-04-27 23:31:00,
2013-04-27 16:36:00,101.3,51.4,30.03,NNW,338,0.0,6.4,19,0.00,,,0.00,WUHU216HW,2013-04-27 23:36:00,
2013-04-27 16:41:00,100.5,50.8,30.02,NW,315,1.7,6.4,19,0.00,,,0.00,WUHU216HW,2013-04-27 23:41:00,
2013-04-27 16:46:00,100.0,50.4,30.02,NNW,338,0.0,1.7,19,0.00,,,0.00,WUHU216HW,2013-04-27 23:46:00,
2013-04-27 16:51:00,98.7,49.3,30.03,NW,315,0.0,1.7,19,0.00,,,0.00,WUHU216HW,2013-04-27 23:51:00,
2013-04-27 16:56:00,97.8,48.6,30.02,SE,135,1.5,7.6,19,0.00,,,0.00,WUHU216HW,2013-04-27 23:56:00,
2013-04-27 17:01:00,97.1,48.0,30.02,East,90,0.0,7.6,19,0.00,,,0.00,WUHU216HW,2013-04-28 00:01:00,
2013-04-27 17:06:00,95.9,47.0,30.02,NNE,23,1.7,3.3,19,0.00,,,0.00,WUHU216HW,2013-04-28 00:06:00,
2013-04-27 17:11:00,95.7,46.9,30.02,NW,315,2.2,3.3,19,0.00,,,0.00,WUHU216HW,2013-04-28 00:11:00,
2013-04-27 17:16:00,94.4,45.8,30.01,NW,315,0.0,3.1,19,0.00,,,0.00,WUHU216HW,2013-04-28 00:16:00,
2013-04-27 17:21:00,93.7,45.2,30.02,North,0,0.0,0.0,19,0.00,,,0.00,WUHU216HW,2013-04-28 00:21:00,
2013-04-27 17:26:00,93.3,44.9,30.02,NNW,338,0.0,1.1,19,0.00,,,0.00,WUHU216HW,2013-04-28 00:26:00,
2013-04-27 17:31:00,92.8,44.5,30.01,ESE,113,0.6,7.1,19,0.00,,,0.00,WUHU216HW,2013-04-28 00:31:00,
2013-04-27 17:36:00,92.3,44.1,30.01,South,180,1.7,7.1,19,0.00,,,0.00,WUHU216HW,2013-04-28 00:36:00,
2013-04-27 17:41:00,91.9,43.8,30.02,South,180,0.6,2.6,19,0.00,,,0.00,WUHU216HW,2013-04-28 00:41:00,
2013-04-27 17:46:00,91.5,43.4,30.01,SE,135,0.0,1.7,19,0.00,,,0.00,WUHU216HW,2013-04-28 00:46:00,
2013-04-27 17:51:00,91.2,45.7,30.01,SE,135,4.2,4.2,21,0.00,,,0.00,WUHU216HW,2013-04-28 00:51:00,
2013-04-27 17:56:00,91.0,45.5,30.01,ESE,113,2.6,4.2,21,0.00,,,0.00,WUHU216HW,2013-04-28 00:56:00,
2013-04-27 18:01:00,90.8,42.9,30.01,SSE,158,3.3,4.2,19,0.00,,,0.00,WUHU216HW,2013-04-28 01:01:00,
2013-04-27 18:06:00,90.3,44.9,30.00,SE,135,0.0,3.3,21,0.00,,,0.00,WUHU216HW,2013-04-28 01:06:00,
2013-04-27 18:11:00,89.9,45.7,30.01,SE,135,0.0,3.3,22,0.00,,,0.00,WUHU216HW,2013-04-28 01:11:00,
2013-04-27 18:16:00,89.7,45.6,30.01,SSE,158,0.0,1.3,22,0.00,,,0.00,WUHU216HW,2013-04-28 01:16:00,
2013-04-27 18:21:00,89.2,45.1,30.00,SE,135,1.3,1.3,22,0.00,,,0.00,WUHU216HW,2013-04-28 01:21:00,
2013-04-27 18:26:00,89.0,45.0,30.00,SE,135,0.0,1.3,22,0.00,,,0.00,WUHU216HW,2013-04-28 01:26:00,
2013-04-27 18:31:00,88.5,44.7,30.00,SE,135,1.7,1.7,22,0.00,,,0.00,WUHU216HW,2013-04-28 01:31:00,
2013-04-27 18:36:00,88.3,45.5,30.00,SE,135,0.0,1.7,23,0.00,,,0.00,WUHU216HW,2013-04-28 01:36:00,
2013-04-27 18:41:00,88.1,45.3,30.00,SSE,158,0.0,1.7,23,0.00,,,0.00,WUHU216HW,2013-04-28 01:41:00,
2013-04-27 18:46:00,87.8,45.0,30.00,SSE,158,0.0,0.0,23,0.00,,,0.00,WUHU216HW,2013-04-28 01:46:00,
2013-04-27 18:51:00,87.4,45.8,30.00,SE,135,0.0,0.0,24,0.00,,,0.00,WUHU216HW,2013-04-28 01:51:00,
2013-04-27 18:56:00,87.4,45.8,30.00,SE,135,0.0,0.0,24,0.00,,,0.00,WUHU216HW,2013-04-28 01:56:00,
2013-04-27 19:01:00,87.0,45.5,30.00,SE,135,0.0,0.0,24,0.00,,,0.00,WUHU216HW,2013-04-28 02:01:00,
2013-04-27 19:06:00,86.9,45.3,29.99,SE,135,0.0,0.0,24,0.00,,,0.00,WUHU216HW,2013-04-28 02:06:00,
2013-04-27 19:11:00,86.5,45.0,29.99,SE,135,0.0,0.0,24,0.00,,,0.00,WUHU216HW,2013-04-28 02:11:00,
2013-04-27 19:16:00,86.1,46.9,29.99,SE,135,0.0,0.0,26,0.00,,,0.00,WUHU216HW,2013-04-28 02:16:00,
2013-04-27 19:21:00,85.6,46.4,29.99,SE,135,0.0,0.0,26,0.00,,,0.00,WUHU216HW,2013-04-28 02:21:00,
2013-04-27 19:26:00,85.4,47.3,29.99,SE,135,0.0,0.0,27,0.00,,,0.00,WUHU216HW,2013-04-28 02:26:00,
2013-04-27 19:31:00,84.5,47.6,29.99,SE,135,0.0,0.0,28,0.00,,,0.00,WUHU216HW,2013-04-28 02:31:00,
2013-04-27 19:36:00,84.2,47.3,29.99,SE,135,0.0,0.0,28,0.00,,,0.00,WUHU216HW,2013-04-28 02:36:00,
2013-04-27 19:41:00,83.6,47.9,29.99,SE,135,0.0,0.0,29,0.00,,,0.00,WUHU216HW,2013-04-28 02:41:00,
2013-04-27 19:46:00,82.7,47.1,29.99,SE,135,0.0,0.0,29,0.00,,,0.00,WUHU216HW,2013-04-28 02:46:00,
2013-04-27 19:51:00,82.2,47.6,29.99,SE,135,0.0,0.0,30,0.00,,,0.00,WUHU216HW,2013-04-28 02:51:00,
2013-04-27 19:56:00,81.6,48.0,29.99,SE,135,0.0,0.0,31,0.00,,,0.00,WUHU216HW,2013-04-28 02:56:00,
2013-04-27 20:01:00,80.9,47.4,29.99,SE,135,0.0,0.0,31,0.00,,,0.00,WUHU216HW,2013-04-28 03:01:00,
2013-04-27 20:06:00,80.4,47.0,29.99,SE,135,0.0,0.0,31,0.00,,,0.00,WUHU216HW,2013-04-28 03:06:00,
2013-04-27 20:11:00,79.8,47.3,29.99,SE,135,0.0,0.0,32,0.00,,,0.00,WUHU216HW,2013-04-28 03:11:00,
2013-04-27 20:16:00,79.1,47.4,29.99,SE,135,0.0,0.0,33,0.00,,,0.00,WUHU216HW,2013-04-28 03:16:00,
2013-04-27 20:21:00,78.6,46.9,29.99,SE,135,0.0,0.0,33,0.00,,,0.00,WUHU216HW,2013-04-28 03:21:00,
2013-04-27 20:26:00,78.0,47.2,29.99,SE,135,0.0,0.0,35,0.00,,,0.00,WUHU216HW,2013-04-28 03:26:00,
2013-04-27 20:31:00,77.1,48.0,29.99,SE,135,0.0,0.0,36,0.00,,,0.00,WUHU216HW,2013-04-28 03:31:00,
2013-04-27 20:36:00,76.8,48.4,29.99,SE,135,0.0,0.0,37,0.00,,,0.00,WUHU216HW,2013-04-28 03:36:00,
2013-04-27 20:41:00,76.2,47.9,29.99,SE,135,0.0,0.0,37,0.00,,,0.00,WUHU216HW,2013-04-28 03:41:00,
2013-04-27 20:46:00,75.9,49.1,29.99,SE,135,0.0,0.0,39,0.00,,,0.00,WUHU216HW,2013-04-28 03:46:00,
2013-04-27 20:51:00,75.3,50.0,29.99,SSE,158,0.0,0.0,41,0.00,,,0.00,WUHU216HW,2013-04-28 03:51:00,
2013-04-27 20:56:00,74.4,49.8,29.99,SSE,158,0.0,0.0,42,0.00,,,0.00,WUHU216HW,2013-04-28 03:56:00,
2013-04-27 21:01:00,74.3,49.6,29.99,SSE,158,0.0,0.0,42,0.00,,,0.00,WUHU216HW,2013-04-28 04:01:00,
2013-04-27 21:06:00,73.9,50.5,29.99,SSE,158,0.0,0.0,44,0.00,,,0.00,WUHU216HW,2013-04-28 04:06:00,
2013-04-27 21:11:00,73.5,50.1,29.99,SSE,158,0.0,0.0,44,0.00,,,0.00,WUHU216HW,2013-04-28 04:11:00,
2013-04-27 21:16:00,73.0,49.7,29.99,SSE,158,0.0,0.0,44,0.00,,,0.00,WUHU216HW,2013-04-28 04:16:00,
2013-04-27 21:21:00,72.6,49.9,30.00,SSE,158,0.0,0.0,45,0.00,,,0.00,WUHU216HW,2013-04-28 04:21:00,
2013-04-27 21:26:00,72.3,49.6,30.00,SSE,158,0.0,0.0,45,0.00,,,0.00,WUHU216HW,2013-04-28 04:26:00,
2013-04-27 21:31:00,71.9,49.9,30.00,SSE,158,0.0,0.0,46,0.00,,,0.00,WUHU216HW,2013-04-28 04:31:00,
2013-04-27 21:36:00,71.6,49.6,30.00,SSE,158,0.0,0.0,46,0.00,,,0.00,WUHU216HW,2013-04-28 04:36:00,
2013-04-27 21:41:00,71.2,50.4,30.00,SSE,158,0.0,0.0,48,0.00,,,0.00,WUHU216HW,2013-04-28 04:41:00,
2013-04-27 21:46:00,70.7,49.9,30.00,SSE,158,0.0,0.0,48,0.00,,,0.00,WUHU216HW,2013-04-28 04:46:00,
2013-04-27 21:52:00,70.5,50.4,30.00,SSE,158,0.0,0.0,49,0.00,,,0.00,WUHU216HW,2013-04-28 04:52:00,
2013-04-27 21:57:00,70.1,50.0,30.00,SSE,158,0.0,0.0,49,0.00,,,0.00,WUHU216HW,2013-04-28 04:57:00,
2013-04-27 22:02:00,69.9,49.9,30.01,SSE,158,0.0,0.0,49,0.00,,,0.00,WUHU216HW,2013-04-28 05:02:00,
2013-04-27 22:07:00,69.6,49.6,30.00,SSE,158,0.0,0.0,49,0.00,,,0.00,WUHU216HW,2013-04-28 05:07:00,
2013-04-27 22:12:00,69.2,49.2,30.00,SSE,158,0.0,0.0,49,0.00,,,0.00,WUHU216HW,2013-04-28 05:12:00,
2013-04-27 22:17:00,68.9,48.9,30.00,SSE,158,0.0,0.0,49,0.00,,,0.00,WUHU216HW,2013-04-28 05:17:00,
2013-04-27 22:22:00,68.7,49.3,30.00,SSE,158,0.0,0.0,50,0.00,,,0.00,WUHU216HW,2013-04-28 05:22:00,
2013-04-27 22:27:00,68.3,49.0,30.00,SSE,158,0.0,0.0,50,0.00,,,0.00,WUHU216HW,2013-04-28 05:27:00,
2013-04-27 22:32:00,68.1,48.9,30.00,SSE,158,0.0,0.0,50,0.00,,,0.00,WUHU216HW,2013-04-28 05:32:00,
2013-04-27 22:37:00,67.8,48.5,30.00,SSE,158,0.0,0.0,50,0.00,,,0.00,WUHU216HW,2013-04-28 05:37:00,
2013-04-27 22:42:00,67.4,48.2,30.00,SSE,158,0.0,0.0,50,0.00,,,0.00,WUHU216HW,2013-04-28 05:42:00,
2013-04-27 22:47:00,67.4,48.2,30.00,SSE,158,0.0,0.0,50,0.00,,,0.00,WUHU216HW,2013-04-28 05:47:00,
2013-04-27 22:52:00,67.1,47.9,30.00,SSE,158,0.0,0.0,50,0.00,,,0.00,WUHU216HW,2013-04-28 05:52:00,
2013-04-27 22:57:00,66.9,47.7,30.00,SSE,158,0.0,0.0,50,0.00,,,0.00,WUHU216HW,2013-04-28 05:57:00,
2013-04-27 23:02:00,66.5,47.9,30.00,SSE,158,0.0,0.0,51,0.00,,,0.00,WUHU216HW,2013-04-28 06:02:00,
2013-04-27 23:07:00,66.2,47.6,30.00,SSE,158,0.0,0.0,51,0.00,,,0.00,WUHU216HW,2013-04-28 06:07:00,
2013-04-27 23:12:00,66.2,47.6,30.00,SSE,158,0.0,0.0,51,0.00,,,0.00,WUHU216HW,2013-04-28 06:12:00,
2013-04-27 23:17:00,65.6,47.0,30.00,SSE,158,0.0,0.0,51,0.00,,,0.00,WUHU216HW,2013-04-28 06:17:00,
2013-04-27 23:22:00,65.3,46.7,29.99,SSE,158,0.0,0.0,51,0.00,,,0.00,WUHU216HW,2013-04-28 06:22:00,
2013-04-27 23:27:00,65.1,46.5,30.00,SSE,158,0.0,0.0,51,0.00,,,0.00,WUHU216HW,2013-04-28 06:27:00,
2013-04-27 23:32:00,64.9,46.8,29.99,SSE,158,0.0,0.0,52,0.00,,,0.00,WUHU216HW,2013-04-28 06:32:00,
2013-04-27 23:37:00,64.7,46.6,29.99,SSE,158,0.0,0.0,52,0.00,,,0.00,WUHU216HW,2013-04-28 06:37:00,
2013-04-27 23:42:00,64.4,46.7,30.00,SSE,158,0.0,0.0,53,0.00,,,0.00,WUHU216HW,2013-04-28 06:42:00,
2013-04-27 23:47:00,64.0,46.4,29.99,SSE,158,0.0,0.0,53,0.00,,,0.00,WUHU216HW,2013-04-28 06:47:00,
2013-04-27 23:52:00,64.0,46.4,29.99,SSE,158,0.0,0.0,53,0.00,,,0.00,WUHU216HW,2013-04-28 06:52:00,
2013-04-27 23:57:00,63.8,46.7,29.99,SSE,158,0.0,0.0,54,0.00,,,0.00,WUHU216HW,2013-04-28 06:57:00,